FW3268 Weather Reports


Display with metric or nautical units.
time (UTC)temp
F
wind
direction
speed
MPH
gust
MPH
rain 1hr
in
rain 24hr
in
rain mn
in
humidity
%
barometer
mb
20260510110005 52 7 0.0 1.0 0.00 0.02 0.00 77 1013.6
20260510104501 53 7 0.0 0.0 0.00 0.02 0.00 77 1013.7
20260510103002 53 8 0.0 0.0 0.00 0.02 0.00 76 1013.7
20260510094500 53 7 0.0 0.0 0.00 0.02 0.00 75 1013.0
20260510093000 54 7 0.0 1.0 0.00 0.02 0.00 73 1012.6
20260510091501 54 7 0.0 2.0 0.00 0.02 0.00 75 1012.6
20260510090004 53 7 0.0 1.0 0.00 0.02 0.00 75 1012.2
20260510084459 53 7 1.0 2.0 0.00 0.02 0.00 78 1012.0
20260510083002 54 7 0.0 2.0 0.00 0.02 0.00 74 1011.9
20260510081501 54 7 0.0 2.0 0.00 0.02 0.00 76 1012.0
20260510080003 55 7 0.0 1.0 0.00 0.02 0.00 73 1011.9
20260510074501 55 7 0.0 1.0 0.00 0.02 0.00 70 1012.0
20260510071500 55 7 0.0 2.0 0.00 0.02 0.00 70 1011.1
20260510064500 56 352 0.0 2.0 0.00 0.02 0.00 70 1011.2
20260510063000 56 353 0.0 2.0 0.00 0.02 0.00 70 1011.2
20260510061501 56 358 1.0 2.0 0.00 0.02 0.00 69 1011.2
20260510060003 57 358 1.0 2.0 0.00 0.02 0.00 68 1010.9
20260510054500 57 29 0.0 1.0 0.00 0.02 0.00 67 1010.9
20260510053000 58 29 0.0 2.0 0.00 0.02 0.00 64 1010.6
20260510051502 58 29 1.0 3.0 0.00 0.02 0.00 63 1010.5
20260510050006 58 32 1.0 4.0 0.00 0.02 0.00 62 1010.2
20260510044505 59 26 1.0 3.0 0.00 0.02 0.00 63 1010.3
20260510041504 60 343 2.0 4.0 0.00 0.02 0.00 63 1009.9
20260510040007 61 335 2.0 3.0 0.00 0.02 0.00 66 1009.8
20260510033002 64 294 5.0 9.0 0.00 0.02 0.02 62 1009.3
20260510031502 65 288 4.0 7.0 0.00 0.02 0.02 63 1009.2
20260510030006 65 259 4.0 9.0 0.00 0.02 0.02 62 1008.8
20260510024503 66 266 5.0 8.0 0.00 0.02 0.02 60 1008.8
20260510023002 66 283 5.0 8.0 0.00 0.02 0.02 57 1008.5
20260510021502 66 273 4.0 7.0 0.00 0.02 0.02 63 1008.3
20260510020006 66 282 4.0 7.0 0.00 0.02 0.02 62 1008.0
20260510013002 67 284 4.0 8.0 0.00 0.02 0.02 71 1007.6
20260510011502 67 278 6.0 11.0 0.00 0.02 0.02 70 1007.3
20260510010006 67 305 6.0 10.0 0.00 0.02 0.02 72 1006.9
20260510004503 67 263 8.0 13.0 0.00 0.02 0.02 71 1006.7
20260510003004 68 256 8.0 13.0 0.00 0.02 0.02 70 1006.5
20260510001502 69 256 10.0 16.0 0.00 0.02 0.02 67 1006.3
20260510000007 69 257 9.0 17.0 0.00 0.02 0.02 68 1006.0
20260509234502 69 257 11.0 17.0 0.01 0.02 0.02 67 1006.1
20260509233003 70 297 9.0 17.0 0.01 0.02 0.02 67 1006.0
20260509231502 70 236 13.0 20.0 0.02 0.02 0.02 66 1006.0
20260509224502 68 252 5.0 11.0 0.01 0.01 0.01 71 1005.9
20260509221502 69 276 11.0 19.0 0.00 0.00 0.00 68 1005.9
20260509214501 71 281 13.0 20.0 0.00 0.03 0.00 63 1005.7
20260509213003 71 281 15.0 25.0 0.00 0.03 0.00 62 1005.6
20260509211501 71 284 13.0 21.0 0.00 0.03 0.00 61 1005.6
20260509210004 71 289 14.0 24.0 0.00 0.03 0.00 62 1005.8
20260509201501 70 269 14.0 21.0 0.00 0.11 0.00 64 1005.9
20260509200003 70 293 14.0 24.0 0.00 0.11 0.00 62 1006.0
20260509194501 69 265 15.0 23.0 0.00 0.16 0.00 66 1006.2
20260509193002 69 250 14.0 20.0 0.00 0.16 0.00 70 1006.2
20260509191501 69 276 14.0 21.0 0.00 0.16 0.00 72 1006.2
20260509184501 68 256 14.0 21.0 0.00 0.16 0.00 69 1006.2
20260509183001 67 258 14.0 20.0 0.00 0.16 0.00 71 1006.3
20260509181501 67 221 14.0 20.0 0.00 0.16 0.00 73 1006.5
20260509180005 66 250 13.0 17.0 0.00 0.16 0.00 76 1006.4
20260509174501 66 271 12.0 17.0 0.00 0.16 0.00 71 1006.6
20260509173001 65 259 13.0 20.0 0.00 0.16 0.00 75 1006.6
20260509171501 65 242 13.0 18.0 0.00 0.16 0.00 76 1006.7
20260509170004 64 253 13.0 19.0 0.00 0.16 0.00 75 1006.8
20260509164501 64 261 13.0 18.0 0.00 0.16 0.00 76 1006.8
20260509163001 63 248 14.0 19.0 0.00 0.16 0.00 76 1006.7
20260509160004 62 281 12.0 17.0 0.00 0.16 0.00 80 1006.9
20260509154501 61 252 14.0 20.0 0.00 0.16 0.00 80 1006.8
20260509151501 60 239 14.0 19.0 0.00 0.16 0.00 81 1006.8
20260509150005 59 248 12.0 16.0 0.00 0.16 0.00 81 1006.8
20260509144501 59 244 11.0 15.0 0.00 0.16 0.00 82 1006.7
20260509143001 59 281 11.0 17.0 0.00 0.16 0.00 80 1006.8
20260509141501 59 262 10.0 16.0 0.00 0.16 0.00 79 1006.8
20260509140006 59 278 7.0 13.0 0.00 0.16 0.00 81 1006.9
20260509134502 58 261 8.0 12.0 0.00 0.16 0.00 83 1006.9
20260509133001 57 240 10.0 15.0 0.00 0.16 0.00 84 1006.8
20260509131501 57 247 8.0 11.0 0.00 0.16 0.00 84 1006.6
20260509130005 56 233 8.0 10.0 0.00 0.16 0.00 88 1006.7
20260509124501 55 226 7.0 10.0 0.00 0.16 0.00 88 1006.6
20260509121501 54 252 5.0 7.0 0.00 0.16 0.00 92 1006.9
20260509120005 53 231 3.0 5.0 0.00 0.16 0.00 93 1007.0
20260509113001 52 219 4.0 7.0 0.00 0.16 0.00 93 1006.6
20260509111501 51 181 3.0 6.0 0.00 0.16 0.00 93 1006.3